TimeEST,TemperatureF,Dew PointF,Humidity,Sea Level PressureIn,VisibilityMPH,Wind Direction,Wind SpeedMPH,Gust SpeedMPH,PrecipitationIn,Events,Conditions,WindDirDegrees,DateUTC
12:53 AM,33.1,28.9,85,30.15,10.0,Calm,Calm,-,N/A,,Overcast,0,2013-03-07 05:53:00
1:53 AM,32.0,28.9,88,30.16,10.0,Calm,Calm,-,N/A,,Overcast,0,2013-03-07 06:53:00
2:53 AM,32.0,28.9,88,30.16,10.0,Calm,Calm,-,N/A,,Overcast,0,2013-03-07 07:53:00
3:53 AM,32.0,30.0,92,30.17,9.0,Calm,Calm,-,N/A,,Overcast,0,2013-03-07 08:53:00
4:51 AM,30.2,28.4,93,30.15,9.0,Calm,Calm,-,N/A,,Overcast,0,2013-03-07 09:51:00
4:53 AM,30.9,28.9,92,30.17,9.0,Calm,Calm,-,N/A,,Overcast,0,2013-03-07 09:53:00
5:01 AM,30.2,28.4,93,30.15,9.0,Calm,Calm,-,N/A,,Overcast,0,2013-03-07 10:01:00
5:37 AM,30.2,28.4,93,30.15,8.0,Calm,Calm,-,N/A,,Overcast,0,2013-03-07 10:37:00
5:46 AM,30.2,28.4,93,30.15,8.0,Calm,Calm,-,N/A,,Overcast,0,2013-03-07 10:46:00
5:53 AM,30.9,28.9,92,30.18,8.0,Calm,Calm,-,N/A,,Overcast,0,2013-03-07 10:53:00
6:53 AM,32.0,30.0,92,30.19,7.0,Calm,Calm,-,N/A,,Overcast,0,2013-03-07 11:53:00
7:53 AM,32.0,30.0,92,30.21,8.0,NNW,4.6,-,N/A,,Overcast,340,2013-03-07 12:53:00
8:53 AM,32.0,30.0,92,30.23,3.0,NNW,4.6,-,0.00,Snow,Light Snow,340,2013-03-07 13:53:00
8:57 AM,32.0,30.2,93,30.20,1.8,NNW,4.6,-,0.00,Snow,Light Snow,340,2013-03-07 13:57:00
9:10 AM,32.0,30.2,93,30.20,2.0,North,4.6,-,0.00,Snow,Light Snow,350,2013-03-07 14:10:00
9:25 AM,32.0,30.2,93,30.21,1.2,NNW,4.6,-,0.00,Snow,Light Snow,340,2013-03-07 14:25:00
9:38 AM,32.0,30.2,93,30.21,2.0,NNW,4.6,-,0.00,Snow,Light Snow,340,2013-03-07 14:38:00
9:43 AM,32.0,30.2,93,30.21,1.2,NNW,4.6,-,0.01,Snow,Light Snow,340,2013-03-07 14:43:00
9:45 AM,32.0,30.2,93,30.21,1.0,NNW,3.5,-,0.01,Snow,Light Snow,340,2013-03-07 14:45:00
9:53 AM,32.0,30.9,96,30.24,1.5,NNW,3.5,-,0.01,Snow,Light Snow,330,2013-03-07 14:53:00
10:01 AM,32.0,30.2,93,30.22,2.5,NW,3.5,-,0.00,Snow,Light Snow,320,2013-03-07 15:01:00
10:14 AM,33.8,30.2,87,30.22,3.0,NW,3.5,-,0.00,Snow,Light Snow,320,2013-03-07 15:14:00
10:53 AM,33.1,30.9,92,30.25,4.0,WNW,3.5,-,0.00,Snow,Light Snow,290,2013-03-07 15:53:00
11:53 AM,33.1,30.9,92,30.26,4.0,WNW,5.8,-,0.00,Snow,Light Snow,290,2013-03-07 16:53:00
11:56 AM,33.8,30.2,87,30.24,2.5,WNW,5.8,-,0.00,Snow,Light Snow,290,2013-03-07 16:56:00
12:07 PM,33.8,30.2,87,30.24,1.5,WNW,5.8,-,0.00,Snow,Light Snow,300,2013-03-07 17:07:00
12:18 PM,33.8,30.2,87,30.24,3.0,WNW,6.9,-,0.00,Snow,Light Snow,300,2013-03-07 17:18:00
12:37 PM,33.8,30.2,87,30.24,5.0,WNW,4.6,-,0.00,Snow,Light Snow,290,2013-03-07 17:37:00
12:53 PM,33.1,30.9,92,30.26,5.0,West,4.6,-,0.00,,Overcast,280,2013-03-07 17:53:00
1:17 PM,33.8,30.2,87,30.23,4.0,West,3.5,-,0.00,Snow,Light Snow,280,2013-03-07 18:17:00
1:30 PM,33.8,30.2,87,30.23,2.0,West,3.5,-,0.00,Snow,Light Snow,280,2013-03-07 18:30:00
1:46 PM,33.8,30.2,87,30.23,1.8,West,5.8,-,0.00,Snow,Light Snow,270,2013-03-07 18:46:00
1:53 PM,33.1,30.9,92,30.25,1.8,West,5.8,-,0.00,Snow,Light Snow,270,2013-03-07 18:53:00
2:00 PM,33.8,30.2,87,30.23,2.0,West,4.6,-,0.00,Snow,Light Snow,280,2013-03-07 19:00:00
2:29 PM,33.8,30.2,87,30.23,1.5,West,4.6,-,0.01,Snow,Light Snow,270,2013-03-07 19:29:00
2:46 PM,33.8,30.2,87,30.23,1.8,West,3.5,-,0.01,Snow,Light Snow,280,2013-03-07 19:46:00
2:53 PM,33.1,30.9,92,30.25,2.0,West,3.5,-,0.01,Snow,Light Snow,270,2013-03-07 19:53:00
3:01 PM,33.8,30.2,87,30.23,1.5,West,3.5,-,0.00,Snow,Light Snow,280,2013-03-07 20:01:00
3:41 PM,33.8,30.2,87,30.23,2.5,West,4.6,-,0.01,Snow,Light Snow,270,2013-03-07 20:41:00
3:53 PM,33.1,30.9,92,30.26,4.0,Calm,Calm,-,0.01,Snow,Light Snow,0,2013-03-07 20:53:00
4:51 PM,33.8,32.0,93,30.24,2.5,NNW,4.6,-,0.00,,Overcast,330,2013-03-07 21:51:00
4:53 PM,33.1,32.0,96,30.27,2.5,NNW,3.5,-,0.00,,Overcast,330,2013-03-07 21:53:00
5:05 PM,32.0,30.2,93,30.25,1.5,Calm,Calm,-,0.00,Snow,Light Snow,0,2013-03-07 22:05:00
5:32 PM,32.0,30.2,93,30.25,1.5,Calm,Calm,-,0.01,Snow,Light Snow,0,2013-03-07 22:32:00
5:48 PM,32.0,30.2,93,30.25,2.0,Calm,Calm,-,0.01,Snow,Light Snow,0,2013-03-07 22:48:00
5:53 PM,32.0,32.0,100,30.28,2.0,Calm,Calm,-,0.01,Snow,Light Snow,0,2013-03-07 22:53:00
6:03 PM,32.0,30.2,93,30.26,1.0,Calm,Calm,-,0.00,Snow,Light Snow,0,2013-03-07 23:03:00
6:45 PM,32.0,30.2,93,30.26,1.5,SW,5.8,-,0.02,Snow,Light Snow,230,2013-03-07 23:45:00
6:53 PM,32.0,30.9,96,30.28,1.8,SW,4.6,-,0.02,Snow,Light Snow,220,2013-03-07 23:53:00
7:01 PM,32.0,30.2,93,30.26,2.5,WSW,4.6,-,0.00,Snow,Light Snow,240,2013-03-08 00:01:00
7:09 PM,32.0,30.2,93,30.26,3.0,WSW,3.5,-,0.00,,Overcast,240,2013-03-08 00:09:00
7:34 PM,32.0,30.2,93,30.26,2.5,West,3.5,-,0.00,,Overcast,260,2013-03-08 00:34:00
7:53 PM,32.0,30.9,96,30.30,2.5,Calm,Calm,-,0.00,,Overcast,0,2013-03-08 00:53:00
8:33 PM,32.0,30.2,93,30.27,1.2,Calm,Calm,-,N/A,,Overcast,0,2013-03-08 01:33:00
8:42 PM,32.0,30.2,93,30.28,0.8,Calm,Calm,-,N/A,,Mist,0,2013-03-08 01:42:00
8:53 PM,32.0,30.9,96,30.30,0.5,Calm,Calm,-,N/A,Fog,Fog,0,2013-03-08 01:53:00
9:53 PM,32.0,30.9,96,30.31,0.5,NW,4.6,-,N/A,Fog,Fog,320,2013-03-08 02:53:00
10:05 PM,32.0,30.2,93,30.28,1.2,NW,3.5,-,N/A,,Overcast,320,2013-03-08 03:05:00
10:16 PM,32.0,30.2,93,30.28,3.0,Calm,Calm,-,N/A,,Overcast,0,2013-03-08 03:16:00
10:41 PM,32.0,30.2,93,30.28,5.0,NW,4.6,-,N/A,,Overcast,310,2013-03-08 03:41:00
10:53 PM,30.9,30.0,96,30.30,5.0,NW,4.6,-,N/A,,Overcast,320,2013-03-08 03:53:00
11:38 PM,30.2,30.2,100,30.28,7.0,NW,4.6,-,N/A,,Overcast,310,2013-03-08 04:38:00
11:53 PM,30.9,30.0,96,30.31,8.0,NW,4.6,-,N/A,,Overcast,310,2013-03-08 04:53:00